Home > Weather > Constantine > Past weeks

Flag for Algeria Past Weather in Constantine, Algeria — Yesterday and Last 2 Weeks

Now
70 °F

Clear.


Feels Like: 70 °F
Forecast: 58 / 90 °F
Wind: 7 mph from East

Location: Constantine Airport

Current Time: Aug 24, 2016 at 10:47:30 PM

Latest Report: Aug 24, 2016 at 10:00 PM


Visibility: 10 mi

Pressure: 30.09 "Hg (28.20 "Hg at 557m altitude)

Humidity: 60%

Dew Point: 55 °F

Location of ConstantineLocation

Past Weather in Constantine — Graph

°F

Constantine Temperature Yesterday

Maximum temperature yesterday: 86 °F (at 2:30 PM)
Minimum temperature yesterday: 55 °F (at 6:00 AM)
Average temperature yesterday: 70 °F

High & Low Weather Summary for the Past Weeks

 TemperatureHumidityPressure
High102 °F (Aug 20, 2:30 PM)94% (Aug 11, 7:00 AM)30.30 "Hg (Aug 11, 7:00 AM)
Low55 °F (Aug 12, 5:30 AM)18% (Aug 20, 2:30 PM)29.95 "Hg (Aug 10, 3:30 AM)
Average75 °F51%30.13 "Hg
* Reported Aug 9 9:00 PM — Aug 24 9:30 PM, Constantine, Weather by CustomWeather, © 2016

Note: Actual official high and low records may vary slightly from our data, if they occured in-between our weather recording intervals... More about our weather records

Advertising

Constantine Weather History for the Previous 24 Hours

Scroll right to see more
 ConditionsComfort  
Time TempWeatherWind HumidityBarometerVisibility
9:30 PM
Wed, Aug 24
70 °FPassing clouds.7 mph60%30.09 "HgN/A
9:00 PM70 °FPassing clouds.5 mph60%30.09 "HgN/A
8:30 PM72 °FClear.7 mph61%30.09 "Hg10 mi
8:00 PM73 °FClear.13 mph57%30.09 "Hg10 mi
7:30 PM75 °FClear.12 mph54%30.09 "Hg10 mi
7:00 PM77 °FSunny.13 mph47%30.07 "Hg10 mi
6:30 PM81 °FSunny.12 mph42%30.07 "Hg10 mi
6:00 PM82 °FSunny.13 mph40%30.07 "Hg10 mi
5:30 PM84 °FPassing clouds.10 mph35%30.07 "HgN/A
5:00 PM84 °FSunny.13 mph35%30.07 "Hg10 mi
4:30 PM86 °FPassing clouds.12 mph31%30.07 "HgN/A
4:00 PM88 °FSunny.10 mph27%30.07 "Hg10 mi
3:30 PM86 °FPassing clouds.10 mph29%30.07 "HgN/A
3:00 PM88 °FPassing clouds.5 mph27%30.09 "HgN/A
2:30 PM86 °FPassing clouds.8 mph27%30.09 "HgN/A
2:00 PM86 °FSunny.2 mph27%30.09 "Hg10 mi
1:30 PM84 °FPassing clouds.6 mph27%30.12 "HgN/A
1:00 PM84 °FPassing clouds.6 mph27%30.12 "HgN/A
12:30 PM82 °FPassing clouds.9 mph26%30.12 "HgN/A
12:00 PM82 °FSunny.2 mph23%30.15 "Hg10 mi
11:30 AM81 °FSunny.3 mph28%30.15 "Hg10 mi
11:00 AM79 °FSunny.3 mph34%30.15 "Hg10 mi
10:30 AM77 °FPassing clouds.5 mph39%30.15 "HgN/A
10:00 AM77 °FSunny.2 mph36%30.18 "Hg10 mi
9:30 AM73 °FSunny.2 mph50%30.18 "Hg10 mi
9:00 AM70 °FSunny.2 mph60%30.18 "Hg10 mi
8:30 AM68 °FSunny.2 mph64%30.18 "Hg10 mi
8:00 AM64 °FSunny.No wind68%30.18 "Hg10 mi
7:30 AM64 °FSunny.No wind73%30.18 "Hg10 mi
7:00 AM59 °FSunny.No wind88%30.18 "Hg10 mi
6:30 AM55 °FSunny.No wind88%30.15 "Hg10 mi
6:00 AM57 °FSunny.No wind82%30.15 "Hg10 mi
5:30 AM57 °FClear.No wind82%30.15 "Hg10 mi
5:00 AM57 °FClear.No wind82%30.15 "Hg10 mi
4:30 AM57 °FClear.No wind77%30.15 "Hg10 mi
4:00 AM57 °FClear.No wind82%30.15 "Hg10 mi
3:30 AM57 °FClear.No wind77%30.15 "Hg10 mi
3:00 AM61 °FClear.No wind83%30.18 "Hg10 mi
2:00 AM61 °FClear.No wind83%30.18 "Hg10 mi
1:30 AM59 °FClear.No wind77%30.18 "Hg10 mi
1:00 AM59 °FClear.No wind77%30.18 "Hg10 mi
12:30 AM61 °FClear.No wind77%30.18 "Hg10 mi
12:00 AM63 °FClear.No wind73%30.18 "Hg10 mi
11:00 PM
Tue, Aug 23
64 °FClear.1 mph68%30.21 "Hg10 mi
10:30 PM66 °FClear.1 mph60%30.21 "Hg10 mi
10:00 PM66 °FClear.5 mph64%30.21 "Hg10 mi
Weather by CustomWeather, © 2016

See weather overviewHow to use our weather pages